This demonstration page uses our WeatherBlox Daily Observations layout. Learn more.

Left ArrowRight Arrow

39.01783, -85.05884

Hourly Observations for February 7, 2021

Temp ( °F °C ) Dew Point ( °F °C ) Humidity (%) Winds ( mph kmh ) Pressure ( in mb ) Visibility ( mi km ) Precip ( " mm )
12:37 am 00:37 Cloudy 27 -2.8 15 -9.4 61 61 NNW 13 20 30.05 1017 10 16 0.00 0.00
12:52 am 00:52 Cloudy 26 -3.3 15 -9.4 63 63 NNW 13 20 30.01 1016 10 16 0.00 0.00
1:50 am 01:50 Cloudy with Light Snow 23 -5 16 -9 74 74 N 16 26 30.06 1018 4 6 0.00 0.00
1:52 am 01:52 Cloudy with Light Snow 23 -5 15 -9.4 72 72 N 16 26 30.02 1017 3 5 0.00 0.00
2:25 am 02:25 Cloudy with Light Snow 20 -6.7 14 -10 78 78 NNW 17 28 30.08 1019 3 4 0.00 0.00
2:42 am 02:42 Cloudy with Light Snow 20 -6.7 14 -10 78 78 N 10 17 30.08 1019 3 5 0.00 0.00
2:52 am 02:52 Cloudy with Light Snow 20 -6.7 14 -10 78 78 N 13 20 30.04 1017 5 8 0.00 0.00
3:52 am 03:52 Cloudy with Light Snow 20 -6.7 15 -9.4 81 81 N 16 26 30.02 1017 4 6 0.00 0.00
4:13 am 04:13 Cloudy with Light Snow 20 -6.7 15 -9.4 81 81 NNW 15 24 30.09 1019 4 6 0.00 0.00
4:42 am 04:42 Cloudy 20 -6.7 13 -10.6 74 74 NNW 13 20 30.11 1020 10 16 0.00 0.00
4:52 am 04:52 Cloudy 20 -6.7 13 -10.6 74 74 NNW 14 22 30.06 1018 10 16 0.00 0.00
5:17 am 05:17 Cloudy 19 -7.2 13 -10.6 77 77 NNW 12 19 30.12 1020 10 16 0.00 0.00
5:52 am 05:52 Partly Cloudy 18 -7.8 11 -11.7 74 74 NNW 12 19 30.09 1019 10 16 0.00 0.00
6:52 am 06:52 Clear 15 -9.4 7 -13.9 70 70 NNW 12 19 30.12 1020 10 16 0.00 0.00
7:52 am 07:52 Mostly Sunny 14 -10 7 -13.9 73 73 NNW 9 15 30.16 1021 10 16 0.00 0.00
8:52 am 08:52 Mostly Sunny 14 -10 6 -14.4 71 71 NW 13 20 30.19 1022 10 16 0.00 0.00
9:52 am 09:52 Mostly Sunny 16 -8.9 6 -14.4 65 65 NNW 9 15 30.21 1023 10 16 0.00 0.00
10:52 am 10:52 Mostly Sunny 17 -8.3 6 -14.4 62 62 NW 9 15 30.21 1023 10 16 0.00 0.00
11:52 am 11:52 Sunny 19 -7.2 2 -16.7 47 47 N 6 9 30.22 1023 10 16 0.00 0.00
12:52 pm 12:52 Sunny 21 -6.1 0 -17.8 39 39 N 9 15 30.22 1023 10 16 0.00 0.00
1:52 pm 13:52 Sunny 22 -5.6 1 -17.2 40 40 W 7 11 30.21 1023 10 16 0.00 0.00
2:52 pm 14:52 Mostly Cloudy 23 -5 -2 -18.9 33 33 W 5 7 30.21 1023 10 16 0.00 0.00
3:52 pm 15:52 Mostly Cloudy 24 -4.4 -2 -18.9 32 32 NNW 12 19 30.21 1023 10 16 0.00 0.00
4:52 pm 16:52 Mostly Cloudy 23 -5 -2 -18.9 33 33 WNW 6 9 30.22 1023 10 16 0.00 0.00
5:52 pm 17:52 Mostly Cloudy 21 -6.1 0 -17.8 39 39 WNW 6 9 30.22 1023 10 16 0.00 0.00
6:52 pm 18:52 Mostly Cloudy 19 -7.2 3 -16.1 49 49 NNW 8 13 30.24 1024 10 16 0.00 0.00
7:52 pm 19:52 Cloudy 18 -7.8 2 -16.7 49 49 N 9 15 30.27 1025 10 16 0.00 0.00
8:52 pm 20:52 Partly Cloudy 17 -8.3 1 -17.2 49 49 NNW 8 13 30.28 1026 10 16 0.00 0.00
9:52 pm 21:52 Partly Cloudy 16 -8.9 0 -17.8 49 49 N 10 17 30.28 1026 10 16 0.00 0.00
10:52 pm 22:52 Mostly Cloudy 16 -8.9 1 -17.2 51 51 N 9 15 30.29 1026 10 16 0.00 0.00
11:52 pm 23:52 Mostly Cloudy 16 -8.9 3 -16.1 56 56 NNE 7 11 30.30 1026 10 16 0.00 0.00

Powered by AerisWeather